SL-4 R/B (43703 NORAD) Tracking and Keplerian Element Data

This shows tracking and keplerian element data for the satellite.

Feedback or suggestion? Click here.




ElementValue
Catalog43703
NameSL-4 R/B
Epoch Orbit44
Epoch Day323.44519886
Epoch Year2018
RAAN324.2031
Inclination51.6391
Eccentricity0.0009106
Argument of Perigee82.9652
Mean Anonmoly277.2588
Mean Motion16.44932547
Decay Rate0.11731702
L11 43703U 18091B 18323.44519886 .11731702 12555-4 31794-3 0 9999
L22 43703 51.6391 324.2031 0009106 82.9652 277.2588 16.44932547 449

Live tracking and technical data element details for SL-4 R/B (NORAD 43703). SL-4 R/B can be tracked NOW for your location showing map with azimuth and elevation plus other details from your city location.

Track the satellite on the map from your city or location and see movement details for azimuth, elevation, latitude, longitude, range, height, and movement on the map or in text.







IsCatalogInMostPopularTable: catalog: 43703, numindb: 19
Update: records affected: 1



GetName: 43703 SL-4 R/B

Hit Count: updated at: Tue, 11 Dec 2018 02:13:41 GMT